Lexington Weather

Lexington, Massachusetts, USA

55°F
9/29/2023 5:05pm 
  • Lexington Conditions: Heavy rain, Mist, Mostly cloudy
  • Temperature: 54.7°F / 12.6°CColder 2.1°F than last hour.
  • Dew Point: 53.2°FDecreased 2.2°Fsince last hour.
  • Relative Humidity: 95
  • Wind: Calm, 10-min avg: Calm, gust: None
  • Barometer: 30.20 inFalling 0.02  inHg/hr Falling Slowly
  • Visibility: 1¼ miles
  • Rain Today: 0.67 in
  •   

Regional Weather Roundup
for Boston, MA

        
000
ASUS41 KBOX 262210
RWRBOX

REGIONAL WEATHER ROUNDUP
NATIONAL WEATHER SERVICE BOSTON/NORTON MA
600 PM EDT TUE SEP 26 2023

NOTE:  "FAIR" INDICATES FEW OR NO CLOUDS BELOW 12,000 FEET WITH NO 
SIGNIFICANT WEATHER AND/OR OBSTRUCTIONS TO VISIBILITY.

MAZALL-262300-
EASTERN MASSACHUSETTS
  
CITY           SKY/WX    TMP DP  RH WIND       PRES   REMARKS
BOSTON         MOCLDY    56  47  71 NE8       30.40S                  
BEVERLY        CLEAR     55  45  68 NE6       30.39F                  
LAWRENCE       CLEAR     57  46  66 NE6       30.42S                  
BEDFORD        CLEAR     56  42  59 NE6       30.39R                  
NORWOOD        CLEAR     58  47  66 NE8       30.39F                  
MARSHFIELD     MOCLDY    57  48  72 NE9G15    30.38S                  
PLYMOUTH       PTCLDY    57  48  72 NE12      30.37S                  
TAUNTON        MOCLDY    59  48  67 MISG      30.38R                  
NEW BEDFORD    PTCLDY    58  50  75 NE8G17    30.36S                  
$$

MAZALL-262300-
CAPE COD AND THE ISLANDS
  
CITY           SKY/WX    TMP DP  RH WIND       PRES   REMARKS
FALMOUTH       PTCLDY    57  50  77 NE17G25   30.35F                  
HYANNIS        PTCLDY    55  50  83 NE13      30.34S                  
CHATHAM        MOCLDY    62  49  62 NE10      30.36S                  
PROVINCETOWN   MOCLDY    57  51  80 NE9       30.39S                  
NANTUCKET      MOCLDY    57  51  80 NE20G25   30.33S                  
MARTHAS VNYRD  PTCLDY    58  50  75 NE14G20   30.34S                  
$$
 
MAZALL-262300-
CENTRAL AND WESTERN MASSACHUSETTS
  
CITY           SKY/WX    TMP DP  RH WIND       PRES   REMARKS
WORCESTER      CLEAR     56  44  64 NE7       30.39S                  
FITCHBURG        N/A     60  47  61 E6        30.40S                  
ORANGE         CLEAR     62  45  53 E5        30.39S                  
SPRINGFIELD    MOCLDY    62  47  59 NE7       30.35R                  
WESTFIELD      CLEAR     62  47  57 NE7       30.37R                  
NORTH ADAMS    PTCLDY    64  46  52 CALM      30.37S                  
PITTSFIELD     PTCLDY    60  47  61 E3        30.37S                  
$$
 
RIZALL-262300-
RHODE ISLAND
  
CITY           SKY/WX    TMP DP  RH WIND       PRES   REMARKS
PROVIDENCE     CLEAR     57  48  72 NE15      30.38R                  
NEWPORT        PTCLDY    57  48  72 NE16      30.36R                  
BLOCK ISLAND   PTCLDY    56  49  77 NE15G25   30.35S                  
SMITHFIELD     CLEAR     55  48  77 E7        30.39S                  
WESTERLY       PTCLDY    57  49  74 NE6       30.35S                  
$$
 
CTZALL-262300-
CONNECTICUT
  
CITY           SKY/WX    TMP DP  RH WIND       PRES   REMARKS
BRADLEY INTL   MOCLDY    63  48  58 NE9       30.37R                  
HARTFORD       PTCLDY    63  48  58 NE9       30.36S                  
BRIDGEPORT     PTCLDY    61  51  70 NE6       30.34S                  
DANBURY        PTCLDY    62  47  57 NE8       30.36S                  
GROTON         PTCLDY    60  50  69 NE12      30.34S                  
NEW HAVEN      MOCLDY    64  51  62 NE9       30.34S                  
CHESTER        PTCLDY    61  52  72 NE9       30.35S                  
MERIDEN        NOT AVBL                                               
WILLIMANTIC    CLEAR     57  48  72 NE7       30.37F                  
OXFORD         PTCLDY    59  48  67 NE10      30.36S                  
$$

MEZ002-015-021-024-NHZ003-005-008-011-012-014-VTZ005-008-262300-
NORTHERN NEW ENGLAND
  
CITY           SKY/WX    TMP DP  RH WIND       PRES   REMARKS
PORTLAND ME    CLEAR     58  49  72 S5        30.40S                  
BANGOR ME      PTCLDY    64  43  46 NE3       30.39S                  
CONCORD NH     CLEAR     64  46  52 N3        30.39S                  
MANCHESTER NH  MOCLDY    63  48  58 E5        30.38S                  
NASHUA NH      CLEAR     61  50  67 SE7       30.40S                  
PORTSMOUTH NH  MOCLDY    57  46  67 E5        30.39S                  
JAFFREY NH     CLEAR     62  45  53 CALM      30.39S                  
KEENE NH       CLEAR     60  49  66 CALM      30.39R                  
BURLINGTON VT  MOCLDY    65  49  56 NW6       30.41S                  
MT. WASHINGTON MOCLDY    41  12  30 NE21        N/A  WCI  32          
$$

NYZ052-076-262300-
EASTERN NEW YORK
  
CITY           SKY/WX    TMP DP  RH WIND       PRES   REMARKS
ALBANY         MOCLDY    65  50  58 N3        30.38S                  
NEW YORK CITY  MOCLDY    63  52  67 NE18      30.33S                  
$$
 
ANZALL-262300-
MARINE OBSERVATIONS
  
STATION/POSITION TIME  TEMP    WIND        PRES    VSBY  WAVE
                       AIR SEA DIR/SP/G                  HT/PER
                 (UTC) (F)     (DEG/KT/KT) (MB)    (MI)  (FT/S)
BOSTON BUOY      2150   56 63   40/ 12/ 16 1029.1F         6/ 6
BUZZARDS BAY     2100   58      40/ 24/ 26 1027.5R
NANTUCKET SOUND  2150   59 66   40/ 17/ 23 1027.1R         3/ 4
MASS BAY-STELLWA NOT AVBL
ISLE OF SHOALS   2100   56      80/ 13/ 13 1028.7F
S OF BLOCK IS    2156      61                N/A           8/ 8
$$

......................KEY.........................
  SKY/WX - SKY CONDITION/PRESENT WEATHER
  TMP    - TEMPERATURE IN FAHRENHEIT
  DWPT   - DEWPOINT IN FAHRENHEIT
  RH     - RELATIVE HUMIDITY IN PERCENT
  WIND   - DIRECTION AND SPEED IN MPH
  PRES   - MEAN SEA LEVEL PRESSURE IN INCHES OF HG
  WCI    - WIND CHILL INDEX
  VSB    - VISIBILITY IN MILES
  HX     - HEAT INDEX
  TC     - TEMPERATURE IN CELSIUS
  VRB    - VARIABLE WIND DIRECTION
  N/A    - NOT AVAILABLE
  
      

Other recent Regional Weather Roundups

Fri Sep 29, 4:10pm EDT

Fri Sep 29, 3:10pm EDT

Fri Sep 29, 2:10pm EDT

Fri Sep 29, 1:10pm EDT

Fri Sep 29, 12:10pm EDT

Fri Sep 29, 11:10am EDT

Fri Sep 29, 10:10am EDT

Fri Sep 29, 9:10am EDT

Fri Sep 29, 8:10am EDT

Fri Sep 29, 7:10am EDT

Fri Sep 29, 6:10am EDT

Fri Sep 29, 5:10am EDT

Fri Sep 29, 4:10am EDT

Fri Sep 29, 3:10am EDT

Fri Sep 29, 2:10am EDT

Fri Sep 29, 1:10am EDT

Fri Sep 29, 12:10am EDT

Thu Sep 28, 11:10pm EDT

Thu Sep 28, 10:10pm EDT

Thu Sep 28, 9:10pm EDT

Thu Sep 28, 8:10pm EDT

Thu Sep 28, 7:10pm EDT

Thu Sep 28, 6:10pm EDT

Thu Sep 28, 5:10pm EDT

Thu Sep 28, 4:10pm EDT

Thu Sep 28, 3:10pm EDT

Thu Sep 28, 2:10pm EDT

Thu Sep 28, 1:10pm EDT

Thu Sep 28, 12:10pm EDT

Thu Sep 28, 11:10am EDT

Thu Sep 28, 10:10am EDT

Thu Sep 28, 9:10am EDT

Thu Sep 28, 8:10am EDT

Thu Sep 28, 7:10am EDT

Thu Sep 28, 6:10am EDT

Thu Sep 28, 5:10am EDT

Thu Sep 28, 4:10am EDT

Thu Sep 28, 3:10am EDT

Thu Sep 28, 2:10am EDT

Thu Sep 28, 1:10am EDT

Thu Sep 28, 12:10am EDT

Wed Sep 27, 11:10pm EDT

Wed Sep 27, 10:10pm EDT

Wed Sep 27, 9:10pm EDT

Wed Sep 27, 8:10pm EDT

Wed Sep 27, 7:10pm EDT

Wed Sep 27, 6:10pm EDT

Wed Sep 27, 5:10pm EDT

Wed Sep 27, 4:10pm EDT

Wed Sep 27, 3:10pm EDT

Wed Sep 27, 2:10pm EDT

Wed Sep 27, 1:10pm EDT

Wed Sep 27, 12:10pm EDT

Wed Sep 27, 11:10am EDT

Wed Sep 27, 10:10am EDT

Wed Sep 27, 9:10am EDT

Wed Sep 27, 8:10am EDT

Wed Sep 27, 7:10am EDT

Wed Sep 27, 6:10am EDT

Wed Sep 27, 5:10am EDT

Wed Sep 27, 4:10am EDT

Wed Sep 27, 3:10am EDT

Wed Sep 27, 2:10am EDT

Wed Sep 27, 1:10am EDT

Wed Sep 27, 12:10am EDT

Tue Sep 26, 11:10pm EDT

Tue Sep 26, 10:10pm EDT

Tue Sep 26, 9:10pm EDT

Tue Sep 26, 8:10pm EDT

Tue Sep 26, 7:10pm EDT

Tue Sep 26, 5:10pm EDT

Tue Sep 26, 4:10pm EDT

Tue Sep 26, 3:10pm EDT

Tue Sep 26, 2:10pm EDT

Tue Sep 26, 1:10pm EDT

Tue Sep 26, 12:10pm EDT

Tue Sep 26, 11:10am EDT

Tue Sep 26, 10:10am EDT

Tue Sep 26, 9:10am EDT

Tue Sep 26, 8:10am EDT

Tue Sep 26, 7:10am EDT

Tue Sep 26, 6:10am EDT

Tue Sep 26, 5:10am EDT

Tue Sep 26, 4:10am EDT

Tue Sep 26, 3:10am EDT

Tue Sep 26, 2:10am EDT

Tue Sep 26, 1:10am EDT

Tue Sep 26, 12:10am EDT

Mon Sep 25, 11:10pm EDT

Mon Sep 25, 10:10pm EDT

Mon Sep 25, 9:10pm EDT

Mon Sep 25, 8:10pm EDT

Mon Sep 25, 7:10pm EDT

Mon Sep 25, 6:10pm EDT

Mon Sep 25, 5:10pm EDT

Mon Sep 25, 4:10pm EDT

Mon Sep 25, 2:10pm EDT

Mon Sep 25, 1:10pm EDT

Mon Sep 25, 12:10pm EDT

Mon Sep 25, 11:10am EDT

Mon Sep 25, 10:10am EDT

Mon Sep 25, 9:10am EDT

Mon Sep 25, 8:10am EDT

Mon Sep 25, 7:10am EDT

Mon Sep 25, 6:10am EDT

Mon Sep 25, 5:10am EDT

Mon Sep 25, 4:10am EDT

Mon Sep 25, 3:10am EDT

Mon Sep 25, 2:10am EDT

Mon Sep 25, 1:10am EDT

Mon Sep 25, 12:10am EDT

Sun Sep 24, 11:10pm EDT

Sun Sep 24, 10:10pm EDT

Sun Sep 24, 9:10pm EDT

Sun Sep 24, 8:10pm EDT

Sun Sep 24, 7:10pm EDT

Sun Sep 24, 6:10pm EDT

Sun Sep 24, 5:10pm EDT

Sun Sep 24, 4:10pm EDT

Sun Sep 24, 3:10pm EDT

Sun Sep 24, 2:10pm EDT

Sun Sep 24, 1:10pm EDT

Sun Sep 24, 12:10pm EDT

Sun Sep 24, 11:10am EDT

Sun Sep 24, 10:10am EDT

Sun Sep 24, 9:10am EDT

Sun Sep 24, 8:10am EDT

Sun Sep 24, 7:10am EDT

Sun Sep 24, 6:10am EDT

Sun Sep 24, 5:10am EDT

Sun Sep 24, 4:10am EDT

Sun Sep 24, 3:10am EDT

Sun Sep 24, 2:10am EDT

Sun Sep 24, 1:10am EDT

Sun Sep 24, 12:10am EDT

Sat Sep 23, 11:10pm EDT

Sat Sep 23, 10:10pm EDT

Sat Sep 23, 9:10pm EDT

Sat Sep 23, 8:10pm EDT

Sat Sep 23, 7:10pm EDT

Sat Sep 23, 6:10pm EDT

Sat Sep 23, 5:10pm EDT

Sat Sep 23, 4:10pm EDT

Sat Sep 23, 3:10pm EDT

Sat Sep 23, 2:10pm EDT

Sat Sep 23, 1:10pm EDT

Sat Sep 23, 12:10pm EDT

Sat Sep 23, 11:10am EDT

Sat Sep 23, 10:10am EDT

Sat Sep 23, 9:10am EDT

Sat Sep 23, 8:10am EDT

Sat Sep 23, 7:10am EDT

Sat Sep 23, 6:10am EDT

Sat Sep 23, 5:10am EDT

Sat Sep 23, 4:10am EDT

Sat Sep 23, 3:10am EDT

Sat Sep 23, 2:10am EDT

Sat Sep 23, 1:10am EDT

Sat Sep 23, 12:10am EDT

Fri Sep 22, 11:10pm EDT

Fri Sep 22, 10:10pm EDT

Fri Sep 22, 9:10pm EDT

Fri Sep 22, 8:10pm EDT

Fri Sep 22, 7:10pm EDT

Fri Sep 22, 6:10pm EDT

Fri Sep 22, 5:10pm EDT